Time,TemperatureF,DewpointF,PressureIn,WindDirection,WindDirectionDegrees,WindSpeedMPH,WindSpeedGustMPH,Humidity,HourlyPrecipIn,Conditions,Clouds,dailyrainin,SoftwareType,DateUTC
2013-06-24 00:02:00,72.0,69.0,30.15,East,85,0.0,-999.0,89,-99.99,,,-99.99,,2013-06-24 04:02:00,
2013-06-24 00:12:00,72.0,69.0,30.16,East,85,0.0,-999.0,89,-99.99,,,-99.99,,2013-06-24 04:12:00,
2013-06-24 00:22:00,72.0,69.0,30.16,East,85,0.0,-999.0,89,-99.99,,,-99.99,,2013-06-24 04:22:00,
2013-06-24 00:33:00,72.0,69.0,30.16,East,85,0.0,-999.0,89,-99.99,,,-99.99,,2013-06-24 04:33:00,
2013-06-24 00:43:00,72.0,68.0,30.15,East,85,0.0,-999.0,88,-99.99,,,-99.99,,2013-06-24 04:43:00,
2013-06-24 00:52:00,72.0,68.0,30.14,East,86,0.0,-999.0,88,-99.99,,,-99.99,,2013-06-24 04:52:00,
2013-06-24 01:02:00,72.0,69.0,30.14,East,85,0.0,-999.0,89,-99.99,,,-99.99,,2013-06-24 05:02:00,
2013-06-24 01:12:00,72.0,69.0,30.14,East,85,0.0,-999.0,89,-99.99,,,-99.99,,2013-06-24 05:12:00,
2013-06-24 01:22:00,72.0,69.0,30.14,East,85,0.0,-999.0,89,-99.99,,,-99.99,,2013-06-24 05:22:00,
2013-06-24 01:36:00,71.0,68.0,30.15,East,85,0.0,-999.0,89,-99.99,,,-99.99,,2013-06-24 05:36:00,
2013-06-24 01:46:00,71.0,68.0,30.15,East,85,0.0,-999.0,89,-99.99,,,-99.99,,2013-06-24 05:46:00,
2013-06-24 01:53:00,71.0,68.0,30.15,East,85,0.0,-999.0,89,-99.99,,,-99.99,,2013-06-24 05:53:00,
2013-06-24 02:08:00,71.0,67.0,30.15,East,79,0.0,-999.0,88,-99.99,,,-99.99,,2013-06-24 06:08:00,
2013-06-24 02:14:00,71.0,68.0,30.15,East,79,0.0,-999.0,89,-99.99,,,-99.99,,2013-06-24 06:14:00,
2013-06-24 02:24:00,71.0,68.0,30.15,East,79,0.0,-999.0,89,-99.99,,,-99.99,,2013-06-24 06:24:00,
2013-06-24 02:38:00,71.0,68.0,30.15,East,79,0.0,-999.0,90,-99.99,,,-99.99,,2013-06-24 06:38:00,
2013-06-24 02:45:00,71.0,68.0,30.14,East,79,0.0,-999.0,90,-99.99,,,-99.99,,2013-06-24 06:45:00,
2013-06-24 02:53:00,71.0,68.0,30.14,East,79,0.0,-999.0,90,-99.99,,,-99.99,,2013-06-24 06:53:00,
2013-06-24 03:05:00,71.0,68.0,30.15,East,80,0.0,-999.0,91,-99.99,,,-99.99,,2013-06-24 07:05:00,
2013-06-24 03:14:00,70.0,68.0,30.14,East,79,0.0,-999.0,92,-99.99,,,-99.99,,2013-06-24 07:14:00,
2013-06-24 03:30:00,70.0,68.0,30.14,East,79,0.0,-999.0,92,-99.99,,,-99.99,,2013-06-24 07:30:00,
2013-06-24 03:37:00,71.0,69.0,30.14,East,79,0.0,-999.0,92,-99.99,,,-99.99,,2013-06-24 07:37:00,
2013-06-24 03:55:00,71.0,69.0,30.15,SSE,164,0.0,-999.0,93,-99.99,,,-99.99,,2013-06-24 07:55:00,
2013-06-24 04:04:00,70.0,68.0,30.14,South,182,0.0,-999.0,93,-99.99,,,-99.99,,2013-06-24 08:04:00,
2013-06-24 04:14:00,70.0,68.0,30.13,South,184,0.0,-999.0,94,-99.99,,,-99.99,,2013-06-24 08:14:00,
2013-06-24 04:26:00,70.0,68.0,30.13,South,184,0.0,-999.0,94,-99.99,,,-99.99,,2013-06-24 08:26:00,
2013-06-24 04:35:00,70.0,68.0,30.13,South,184,0.0,-999.0,94,-99.99,,,-99.99,,2013-06-24 08:35:00,
2013-06-24 04:46:00,70.0,68.0,30.12,South,184,0.0,-999.0,94,-99.99,,,-99.99,,2013-06-24 08:46:00,
2013-06-24 05:06:00,70.0,68.0,30.12,South,184,0.0,-999.0,95,-99.99,,,-99.99,,2013-06-24 09:06:00,
2013-06-24 05:15:00,70.0,68.0,30.12,South,184,0.0,-999.0,95,-99.99,,,-99.99,,2013-06-24 09:15:00,
2013-06-24 05:37:00,70.0,68.0,30.12,South,184,0.0,-999.0,95,-99.99,,,-99.99,,2013-06-24 09:37:00,
2013-06-24 05:47:00,69.0,68.0,30.13,South,184,0.0,-999.0,95,-99.99,,,-99.99,,2013-06-24 09:47:00,
2013-06-24 06:05:00,69.0,68.0,30.13,South,184,0.0,-999.0,95,-99.99,,,-99.99,,2013-06-24 10:05:00,
2013-06-24 06:14:00,69.0,68.0,30.14,South,184,0.0,-999.0,95,-99.99,,,-99.99,,2013-06-24 10:14:00,
2013-06-24 06:24:00,69.0,68.0,30.14,South,184,0.0,-999.0,95,-99.99,,,-99.99,,2013-06-24 10:24:00,
2013-06-24 06:37:00,69.0,68.0,30.14,South,184,0.0,-999.0,95,-99.99,,,-99.99,,2013-06-24 10:37:00,
2013-06-24 06:49:00,69.0,68.0,30.15,South,184,0.0,-999.0,96,-99.99,,,-99.99,,2013-06-24 10:49:00,
2013-06-24 06:55:00,69.0,68.0,30.15,South,184,0.0,-999.0,96,-99.99,,,-99.99,,2013-06-24 10:55:00,
2013-06-24 07:03:00,70.0,69.0,30.15,South,184,0.0,-999.0,96,-99.99,,,-99.99,,2013-06-24 11:03:00,
2013-06-24 07:29:00,70.0,69.0,30.16,South,184,0.0,-999.0,96,-99.99,,,-99.99,,2013-06-24 11:29:00,
2013-06-24 07:34:00,70.0,69.0,30.15,South,184,0.0,-999.0,96,-99.99,,,-99.99,,2013-06-24 11:34:00,
2013-06-24 07:56:00,70.0,69.0,30.15,South,184,0.0,-999.0,96,-99.99,,,-99.99,,2013-06-24 11:56:00,
2013-06-24 08:06:00,70.0,69.0,30.15,South,184,0.0,-999.0,96,-99.99,,,-99.99,,2013-06-24 12:06:00,
2013-06-24 08:16:00,71.0,70.0,30.16,South,184,0.0,-999.0,96,-99.99,,,-99.99,,2013-06-24 12:16:00,
2013-06-24 08:36:00,72.0,71.0,30.16,SE,142,0.0,-999.0,96,-99.99,,,-99.99,,2013-06-24 12:36:00,
2013-06-24 08:48:00,73.0,72.0,30.16,SE,140,0.0,-999.0,96,-99.99,,,-99.99,,2013-06-24 12:48:00,
2013-06-24 08:53:00,73.0,72.0,30.16,SE,140,0.0,-999.0,96,-99.99,,,-99.99,,2013-06-24 12:53:00,
2013-06-24 09:06:00,73.0,71.0,30.16,SSW,212,0.0,-999.0,94,-99.99,,,-99.99,,2013-06-24 13:06:00,
2013-06-24 09:24:00,74.0,72.0,30.17,SSW,212,0.0,-999.0,93,-99.99,,,-99.99,,2013-06-24 13:24:00,
2013-06-24 09:44:00,75.0,72.0,30.17,SSW,206,0.0,-999.0,90,-99.99,,,-99.99,,2013-06-24 13:44:00,
2013-06-24 09:56:00,75.0,72.0,30.17,SSW,206,0.0,-999.0,90,-99.99,,,-99.99,,2013-06-24 13:56:00,
2013-06-24 10:03:00,76.0,73.0,30.17,SW,218,0.0,-999.0,90,-99.99,,,-99.99,,2013-06-24 14:03:00,
2013-06-24 10:16:00,76.0,73.0,30.17,SW,218,0.0,-999.0,90,-99.99,,,-99.99,,2013-06-24 14:16:00,
2013-06-24 10:24:00,76.0,72.0,30.18,SSW,198,1.0,-999.0,86,-99.99,,,-99.99,,2013-06-24 14:24:00,
2013-06-24 10:37:00,77.0,72.0,30.17,West,277,0.0,-999.0,86,-99.99,,,-99.99,,2013-06-24 14:37:00,
2013-06-24 10:45:00,78.0,72.0,30.17,West,269,0.0,-999.0,83,-99.99,,,-99.99,,2013-06-24 14:45:00,
2013-06-24 11:14:00,79.0,73.0,30.18,South,188,1.0,-999.0,83,-99.99,,,-99.99,,2013-06-24 15:14:00,
2013-06-24 11:27:00,79.0,73.0,30.18,South,188,1.0,-999.0,83,-99.99,,,-99.99,,2013-06-24 15:27:00,
2013-06-24 11:36:00,80.0,73.0,30.18,NNW,339,1.0,-999.0,79,-99.99,,,-99.99,,2013-06-24 15:36:00,
2013-06-24 11:57:00,82.0,73.0,30.17,NW,318,1.0,-999.0,74,-99.99,,,-99.99,,2013-06-24 15:57:00,
2013-06-24 12:15:00,82.0,73.0,30.17,South,169,1.0,-999.0,75,-99.99,,,-99.99,,2013-06-24 16:15:00,
2013-06-24 12:24:00,82.0,73.0,30.16,NW,307,0.0,-999.0,74,-99.99,,,-99.99,,2013-06-24 16:24:00,
2013-06-24 12:43:00,83.0,71.0,30.16,South,188,2.0,-999.0,67,-99.99,,,-99.99,,2013-06-24 16:43:00,
2013-06-24 12:56:00,84.0,72.0,30.16,South,171,2.0,-999.0,67,-99.99,,,-99.99,,2013-06-24 16:56:00,
2013-06-24 13:05:00,84.0,72.0,30.16,South,171,2.0,-999.0,67,-99.99,,,-99.99,,2013-06-24 17:05:00,
2013-06-24 13:15:00,84.0,72.0,30.15,SSE,158,2.0,-999.0,67,-99.99,,,-99.99,,2013-06-24 17:15:00,
2013-06-24 13:25:00,85.0,71.0,30.15,West,259,2.0,-999.0,63,-99.99,,,-99.99,,2013-06-24 17:25:00,
2013-06-24 13:35:00,85.0,71.0,30.15,West,259,2.0,-999.0,63,-99.99,,,-99.99,,2013-06-24 17:35:00,
2013-06-24 13:47:00,86.0,71.0,30.14,West,273,3.0,-999.0,61,-99.99,,,-99.99,,2013-06-24 17:47:00,
2013-06-24 13:57:00,86.0,71.0,30.13,SW,221,2.0,-999.0,62,-99.99,,,-99.99,,2013-06-24 17:57:00,
2013-06-24 14:25:00,86.0,71.0,30.12,WSW,253,3.0,-999.0,62,-99.99,,,-99.99,,2013-06-24 18:25:00,
2013-06-24 14:46:00,87.0,71.0,30.11,SSE,162,3.0,-999.0,59,-99.99,,,-99.99,,2013-06-24 18:46:00,
2013-06-24 14:55:00,88.0,70.0,30.10,SSE,157,2.0,-999.0,56,-99.99,,,-99.99,,2013-06-24 18:55:00,
2013-06-24 15:06:00,88.0,70.0,30.10,SSE,157,2.0,-999.0,56,-99.99,,,-99.99,,2013-06-24 19:06:00,
2013-06-24 15:13:00,88.0,70.0,30.09,WSW,250,3.0,-999.0,55,-99.99,,,-99.99,,2013-06-24 19:13:00,
2013-06-24 15:25:00,88.0,69.0,30.08,SSW,203,4.0,-999.0,53,-99.99,,,-99.99,,2013-06-24 19:25:00,
2013-06-24 15:37:00,88.0,69.0,30.08,SSW,203,4.0,-999.0,53,-99.99,,,-99.99,,2013-06-24 19:37:00,
2013-06-24 15:45:00,88.0,70.0,30.08,South,169,3.0,-999.0,55,-99.99,,,-99.99,,2013-06-24 19:45:00,
2013-06-24 15:57:00,88.0,70.0,30.08,SSW,192,2.0,-999.0,56,-99.99,,,-99.99,,2013-06-24 19:57:00,
2013-06-24 16:12:00,88.0,70.0,30.08,SW,219,2.0,-999.0,56,-99.99,,,-99.99,,2013-06-24 20:12:00,
2013-06-24 16:34:00,88.0,70.0,30.07,South,184,4.0,-999.0,56,-99.99,,,-99.99,,2013-06-24 20:34:00,
2013-06-24 16:45:00,87.0,70.0,30.07,SSW,205,3.0,-999.0,57,-99.99,,,-99.99,,2013-06-24 20:45:00,
2013-06-24 16:56:00,88.0,71.0,30.07,SE,136,2.0,-999.0,57,-99.99,,,-99.99,,2013-06-24 20:56:00,
2013-06-24 17:04:00,88.0,71.0,30.07,SE,136,2.0,-999.0,57,-99.99,,,-99.99,,2013-06-24 21:04:00,
2013-06-24 17:13:00,88.0,70.0,30.07,ESE,119,2.0,-999.0,56,-99.99,,,-99.99,,2013-06-24 21:13:00,
2013-06-24 17:37:00,88.0,70.0,30.07,South,177,4.0,-999.0,56,-99.99,,,-99.99,,2013-06-24 21:37:00,
2013-06-24 17:46:00,87.0,71.0,30.07,West,281,2.0,-999.0,59,-99.99,,,-99.99,,2013-06-24 21:46:00,
2013-06-24 17:55:00,88.0,71.0,30.06,SSE,163,3.0,-999.0,57,-99.99,,,-99.99,,2013-06-24 21:55:00,
2013-06-24 18:15:00,88.0,70.0,30.06,South,180,3.0,-999.0,56,-99.99,,,-99.99,,2013-06-24 22:15:00,
2013-06-24 18:36:00,87.0,70.0,30.06,SSE,162,4.0,-999.0,57,-99.99,,,-99.99,,2013-06-24 22:36:00,
2013-06-24 18:47:00,88.0,71.0,30.06,South,190,2.0,-999.0,58,-99.99,,,-99.99,,2013-06-24 22:47:00,
2013-06-24 18:56:00,87.0,71.0,30.06,SSE,153,2.0,-999.0,60,-99.99,,,-99.99,,2013-06-24 22:56:00,
2013-06-24 19:05:00,86.0,70.0,30.06,South,175,3.0,-999.0,60,-99.99,,,-99.99,,2013-06-24 23:05:00,
2013-06-24 19:14:00,86.0,70.0,30.06,South,175,3.0,-999.0,60,-99.99,,,-99.99,,2013-06-24 23:14:00,
2013-06-24 19:27:00,85.0,70.0,30.06,SE,142,2.0,-999.0,62,-99.99,,,-99.99,,2013-06-24 23:27:00,
2013-06-24 19:35:00,84.0,69.0,30.05,SSE,162,1.0,-999.0,61,-99.99,,,-99.99,,2013-06-24 23:35:00,
2013-06-24 19:45:00,84.0,69.0,30.05,SSE,162,1.0,-999.0,61,-99.99,,,-99.99,,2013-06-24 23:45:00,
2013-06-24 20:05:00,83.0,69.0,30.07,SSE,157,0.0,-999.0,63,-99.99,,,-99.99,,2013-06-25 00:05:00,
2013-06-24 20:24:00,82.0,69.0,30.08,SW,217,0.0,-999.0,65,-99.99,,,-99.99,,2013-06-25 00:24:00,
2013-06-24 20:34:00,82.0,69.0,30.08,SSW,200,0.0,-999.0,66,-99.99,,,-99.99,,2013-06-25 00:34:00,
2013-06-24 20:47:00,82.0,69.0,30.08,SSW,200,0.0,-999.0,66,-99.99,,,-99.99,,2013-06-25 00:47:00,
2013-06-24 20:56:00,81.0,69.0,30.08,SSW,213,0.0,-999.0,67,-99.99,,,-99.99,,2013-06-25 00:56:00,
2013-06-24 21:04:00,81.0,69.0,30.08,SSE,163,0.0,-999.0,68,-99.99,,,-99.99,,2013-06-25 01:04:00,
2013-06-24 21:24:00,81.0,70.0,30.08,SSE,151,0.0,-999.0,69,-99.99,,,-99.99,,2013-06-25 01:24:00,
2013-06-24 21:44:00,80.0,69.0,30.07,SE,140,0.0,-999.0,70,-99.99,,,-99.99,,2013-06-25 01:44:00,
2013-06-24 21:57:00,80.0,70.0,30.08,SE,144,1.0,-999.0,72,-99.99,,,-99.99,,2013-06-25 01:57:00,
2013-06-24 22:16:00,79.0,70.0,30.09,SE,142,0.0,-999.0,75,-99.99,,,-99.99,,2013-06-25 02:16:00,
2013-06-24 22:36:00,78.0,71.0,30.09,SW,215,0.0,-999.0,78,-99.99,,,-99.99,,2013-06-25 02:36:00,
2013-06-24 22:45:00,77.0,70.0,30.09,SW,217,1.0,-999.0,80,-99.99,,,-99.99,,2013-06-25 02:45:00,
2013-06-24 22:58:00,76.0,70.0,30.10,South,173,0.0,-999.0,82,-99.99,,,-99.99,,2013-06-25 02:58:00,